Location: Dittelbrunn
(50.0738°N, 10.2196°E)
Time: 03:09:37
(UTC+00:00)

CZ-2C R/B - Pass Details

Date: 18 September 2020
Orbit: 640 x 704 km, 98.4° (Epoch: 19 October)

Event Time Altitude Azimuth Distance (km) Brightness Sun altitude
Rises 19:58:13 0° 13° (NNE) 2,961 7.3 -23.8°
Reaches altitude 10° 20:00:25 10° 12° (NNE) 2,050 6.5 -24.1°
Maximum altitude 20:04:53 79° 287° (WNW) 666 3.7 -24.7°
Enters shadow 20:05:31 64° 220° (SW) 723 3.8 -24.8°
